www.pogodaiklimat.ru
ПОГОДА в Сариасии

Архив погоды в Сариасии (Сухрандарьинская область, Узбекистан)

Время
и дата
06:30 17.05
06:40 17.05
06:50 17.05
07:00 17.05
07:10 17.05
07:20 17.05
07:30 17.05
07:40 17.05
07:50 17.05
08:00 17.05
08:30 17.05
08:40 17.05
08:50 17.05
09:00 17.05
09:20 17.05
09:30 17.05
09:40 17.05
09:50 17.05
10:00 17.05
10:20 17.05
10:40 17.05
11:00 17.05
11:10 17.05
11:20 17.05
11:30 17.05
11:40 17.05
11:50 17.05
12:00 17.05
12:10 17.05
12:20 17.05
12:30 17.05
12:40 17.05
12:50 17.05
13:10 17.05
13:20 17.05
13:50 17.05
14:00 17.05
14:10 17.05
14:20 17.05
14:30 17.05
14:40 17.05
14:50 17.05
15:00 17.05
15:10 17.05
15:20 17.05
15:30 17.05
15:40 17.05
16:00 17.05
16:10 17.05
16:20 17.05
16:40 17.05
16:50 17.05
17:00 17.05
17:10 17.05
17:20 17.05
17:30 17.05
17:40 17.05
17:50 17.05
18:00 17.05
18:10 17.05
18:20 17.05
18:30 17.05
18:40 17.05
18:50 17.05
19:00 17.05
19:10 17.05
19:20 17.05
19:30 17.05
19:40 17.05
19:50 17.05
20:00 17.05
20:10 17.05
20:40 17.05
20:50 17.05
21:00 17.05
21:10 17.05
21:20 17.05
21:30 17.05
21:40 17.05
22:00 17.05
22:10 17.05
22:20 17.05
22:30 17.05
22:40 17.05
22:50 17.05
23:00 17.05
23:10 17.05
23:20 17.05
23:40 17.05
23:50 17.05
00:00 18.05
00:10 18.05
00:20 18.05
00:30 18.05
00:40 18.05
00:50 18.05
01:00 18.05
01:10 18.05
01:20 18.05
01:30 18.05
01:40 18.05
01:50 18.05
02:00 18.05
02:10 18.05
02:20 18.05
02:30 18.05
02:40 18.05
02:50 18.05
03:00 18.05
03:10 18.05
03:20 18.05
03:30 18.05
03:40 18.05
03:50 18.05
10:10 22.05
10:20 22.05
10:30 22.05
10:40 22.05
10:50 22.05
11:00 22.05
11:10 22.05
11:20 22.05
11:30 22.05
11:40 22.05
11:50 22.05
12:00 22.05
12:10 22.05
12:20 22.05
12:30 22.05
12:40 22.05
12:50 22.05
13:00 22.05
13:10 22.05
13:20 22.05
13:30 22.05
13:40 22.05
13:50 22.05
14:00 22.05
14:10 22.05
14:20 22.05
14:30 22.05
14:40 22.05
14:50 22.05
15:00 22.05
Ветер
(напр.,м/с)
Видимость Явления Солнечная радиация
(Вт/м2)
Т
(С)
Тd
(С)
f
(%)
Тe
(С)
Тes
(С)
Комфортность P
(гПа)
Po
(гПа)
Тmin
(С)
Tmax
(С)
R
(мм)
СВ 3.2
{6.2}
+21.1 +21.1 100 +26 +26 душно 1009.7 941.5 +21.1 +20.9
С 3.1
{5.9}
+21.4 +21.4 100 +27 +27 душно 1009.6 941.4 +21.4 +21.1
СВ 3.1
{5.3}
+22.0 +22.0 100 +29 +29 очень
душно
1009.7 941.5 +22.0 +21.4
СВ 3.1
{6.3}
+22.2 +22.2 100 +30 +30 очень
душно
1009.7 941.5 +22.2 +22.0
СВ 3.2
{6.2}
+21.8 +21.8 100 +28 +28 душно 1009.7 941.5 +22.2 +21.8
СВ 3.0
{5.9}
+21.9 +21.9 100 +29 +29 очень
душно
1009.6 941.4 +21.8 +21.6
СВ 2.8
{5.4}
+22.1 +22.1 100 +29 +29 очень
душно
1009.7 941.5 +22.1 +21.9
СВ 2.6
{5.0}
+22.4 +22.4 100 +30 +30 очень
душно
1009.7 941.5 +22.4 +22.1
СВ 2.7
{4.9}
+22.5 +22.5 100 +30 +30 очень
душно
1009.8 941.6 +22.5 +22.4
СВ 2.4
{4.6}
+22.3 +22.3 100 +30 +30 очень
душно
1009.8 941.6 +22.5 +22.3
СВ 2.6
{4.7}
+23.5 +23.5 100 +32 +32 очень
душно
1009.8 941.6 +23.7 +23.5
СВ 2.8
{5.3}
+23.9 +23.9 100 +33 +33 очень
душно
1009.8 941.6 +24.0 +23.5
СВ 2.9
{6.3}
+24.6 +24.6 100 +34 +34 очень
душно
1009.7 941.5 +24.6 +23.9
СВ 3.0
{5.8}
+25.4 +25.4 100 +37 +37 очень
душно
1009.6 941.4 +25.4 +24.6
СВ 3.4
{6.0}
+25.7 +25.7 100 +38 +38 очень
душно
1009.4 941.2 +25.8 +25.5
СВ 3.6
{6.5}
+26.0 +26.0 100 +39 +39 очень
душно
1009.3 941.1 +25.9 +25.5
В 3.2
{5.5}
+26.3 +26.3 100 +40 +40 очень
душно
1009.1 940.9 +26.4 +26.0
СВ 2.9
{5.9}
+26.5 +26.5 100 +40 +40 очень
душно
1009.1 940.9 +26.7 +26.3
СВ 2.7
{5.4}
+26.8 +26.8 100 +42 +42 очень
душно
1009.1 940.9 +26.8 +26.3
В 2.6
{5.2}
+27.5 +27.5 100 +44 +44 очень
душно
1009.0 940.8 +27.5 +27.2
В 2.5
{5.8}
+28.0 +28.0 100 +46 +46 очень
душно
1008.6 940.5 +28.0 +27.7
В 2.9
{6.1}
+28.4 +28.4 100 +48 +48 очень
душно
1008.5 940.4 +28.5 +28.2
В 2.7
{4.7}
+28.6 +28.6 100 +49 +49 очень
душно
1008.4 940.3 +28.7 +28.2
В 3.0
{5.7}
+28.6 +28.6 100 +49 +49 очень
душно
1008.2 940.1 +28.8 +28.5
В 2.1
{4.6}
+29.2 +29.2 100 +52 +52 очень
душно
1008.1 940.0 +29.1 +28.5
В 1.7
{4.8}
+29.1 +29.1 100 +51 +51 очень
душно
1008.0 939.9 +29.4 +29.1
В 2.0
{5.0}
+29.0 +29.0 100 +51 +51 очень
душно
1007.9 939.8 +29.2 +29.0
В 1.7
{3.7}
+29.1 +29.1 100 +51 +51 очень
душно
1007.7 939.6 +29.3 +28.8
В 2.1
{4.3}
+29.0 +29.0 100 +51 +51 очень
душно
1007.5 939.4 +29.1 +29.0
В 2.1
{4.1}
+29.8 +29.8 100 +54 +54 очень
душно
1007.4 939.3 +29.8 +29.0
В 1.8
{3.7}
+29.7 +29.7 100 +54 +54 очень
душно
1007.3 939.2 +30.2 +29.6
В 1.9
{4.2}
+30.1 +30.1 100 +56 +56 очень
душно
1007.3 939.2 +30.1 +29.7
В 2.2
{4.9}
+30.1 +30.1 100 +56 +56 очень
душно
1007.2 939.1 +30.4 +30.1
В 2.2
{4.6}
+30.6 +30.6 100 +59 +59 очень
душно
1006.7 938.7 +30.7 +30.4
В 2.1
{4.6}
+30.5 +30.5 100 +58 +58 очень
душно
1006.6 938.6 +30.7 +30.5
СВ 2.3
{4.3}
+30.4 +30.4 100 +58 +58 очень
душно
1006.2 938.2 +30.8 +30.4
СВ 2.0
{4.3}
+30.5 +30.5 100 +58 +58 очень
душно
1006.2 938.2 +30.5 +30.2
СВ 1.8
{5.3}
+30.6 +30.6 100 +59 +59 очень
душно
1006.0 938.0 +30.6 +30.4
В 1.9
{4.8}
+30.5 +30.5 100 +58 +58 очень
душно
1005.9 937.9 +30.7 +30.4
СВ 1.6
{3.8}
+31.0 +31.0 100 +61 +61 очень
душно
1005.7 937.7 +31.0 +30.4
В 1.7
{4.2}
+30.6 +30.6 100 +59 +59 очень
душно
1005.5 937.5 +31.1 +30.7
В 1.1
{3.0}
+30.5 +30.5 100 +58 +58 очень
душно
1005.3 937.3 +30.6 +30.3
В 1.6
{2.9}
+30.5 +30.5 100 +58 +58 очень
душно
1005.2 937.2 +30.5 +30.1
В 1.7
{3.7}
+30.9 +30.9 100 +60 +60 очень
душно
1004.9 937.0 +31.1 +30.5
В 1.5
{4.1}
+31.4 +31.4 100 +63 +63 очень
душно
1004.8 936.9 +31.5 +30.9
СВ 1.9
{3.9}
+31.4 +31.4 100 +63 +63 очень
душно
1004.7 936.8 +31.5 +31.4
СВ 2.1
{4.3}
+31.1 +31.1 100 +61 +61 очень
душно
1004.5 936.6 +31.4 +31.0
СВ 1.6
{3.5}
+31.4 +31.4 100 +63 +63 очень
душно
1004.4 936.5 +31.7 +31.3
СВ 1.2
{3.6}
+30.9 +30.9 100 +60 +60 очень
душно
1004.2 936.3 +31.4 +30.9
СВ 1.9
{4.4}
+30.2 +30.2 100 +56 +56 очень
душно
1004.1 936.2 +30.9 +30.2
С 1.7
{3.1}
+31.0 +31.0 100 +61 +61 очень
душно
1003.9 936.0 +31.0 +30.3
СВ 1.6
{3.5}
+31.2 +31.2 100 +62 +62 очень
душно
1003.9 936.0 +31.3 +31.0
СВ 1.4
{3.2}
+30.9 +30.9 100 +60 +60 очень
душно
1003.7 935.8 +31.3 +30.9
В 1.6
{3.1}
+30.1 +30.1 100 +56 +56 очень
душно
1003.6 935.7 +30.9 +30.1
С 1.3
{2.3}
+29.9 +29.9 100 +55 +55 очень
душно
1003.6 935.7 +30.1 +29.9
СЗ 1.3
{2.3}
+29.4 +29.4 100 +53 +53 очень
душно
1003.8 935.9 +29.9 +29.4
С 1.1
{2.2}
+29.4 +29.4 100 +53 +53 очень
душно
1003.9 936.0 +29.4 +29.3
СЗ 1.2
{1.9}
+29.0 +29.0 100 +51 +51 очень
душно
1003.8 935.9 +29.4 +29.1
СЗ 1.8
{2.6}
+28.4 +28.4 100 +48 +48 очень
душно
1003.8 935.9 +29.0 +28.4
С 1.6
{2.3}
+28.0 +28.0 100 +46 +46 очень
душно
1003.7 935.8 +28.4 +28.1
С 2.0
{2.7}
+27.7 +27.7 100 +45 +45 очень
душно
1003.5 935.6 +28.0 +27.7
С 2.4
{3.1}
+27.2 +27.2 100 +43 +43 очень
душно
1003.5 935.6 +27.7 +27.2
С 2.2
{3.1}
+26.5 +26.5 100 +40 +40 очень
душно
1003.4 935.5 +27.2 +26.5
С 2.2
{3.0}
+26.1 +26.1 100 +39 +39 очень
душно
1003.3 935.4 +26.5 +26.1
С 2.5
{3.5}
+25.6 +25.6 100 +37 +37 очень
душно
1003.3 935.4 +26.1 +25.6
С 2.5
{4.0}
+25.2 +25.2 100 +36 +36 очень
душно
1003.3 935.4 +25.6 +25.2
С 2.7
{4.0}
+25.2 +25.2 100 +36 +36 очень
душно
1003.3 935.4 +25.2 +25.2
С 3.0
{4.1}
+25.0 +25.0 100 +36 +36 очень
душно
1003.4 935.5 +25.2 +25.0
С 3.2
{4.4}
+24.7 +24.7 100 +35 +35 очень
душно
1003.3 935.4 +25.0 +24.7
С 3.2
{4.2}
+24.5 +24.5 100 +34 +34 очень
душно
1003.3 935.4 +24.7 +24.5
С 3.0
{4.2}
+24.3 +24.3 100 +34 +34 очень
душно
1003.1 935.3 +24.5 +24.3
С 2.9
{4.4}
+24.1 +24.1 100 +33 +33 очень
душно
1003.0 935.2 +24.3 +24.1
С 1.9
{3.3}
+24.4 +24.4 100 +34 +34 очень
душно
1003.5 935.6 +24.4 +24.1
СВ 0.8
{2.5}
+24.5 +24.5 100 +34 +34 очень
душно
1003.7 935.8 +24.5 +24.4
Ю 2.9
{6.3}
+23.9 +23.9 100 +33 +33 очень
душно
1004.2 936.3 +24.5 +23.9
Ю 3.4
{5.9}
+23.6 +23.6 100 +32 +32 очень
душно
1004.6 936.7 +24.0 +23.6
ЮЗ 2.0
{3.8}
+23.0 +23.0 100 +32 +32 очень
душно
1004.7 936.8 +23.6 +23.0
В 1.7
{2.8}
+22.5 +22.5 100 +30 +30 очень
душно
1004.6 936.7 +23.0 +22.5 0.1
СВ 2.2
{5.5}
+21.9 +21.9 100 +29 +29 очень
душно
1004.6 936.7 +22.5 +21.9 0.1
СВ 2.7
{4.9}
+21.4 +21.4 100 +27 +27 душно 1004.9 937.0 +21.6 +21.4
СВ 1.8
{3.6}
+21.4 +21.4 100 +27 +27 душно 1005.4 937.4 +21.4 +21.4
З 3.0
{6.4}
+21.5 +21.5 100 +28 +28 очень
душно
1005.7 937.7 +21.5 +21.1
С 2.8
{5.4}
+21.7 +21.7 100 +28 +28 душно 1005.5 937.5 +21.9 +21.5
СЗ 3.2
{4.9}
+20.7 +20.7 100 +26 +26 душно 1005.5 937.5 +21.7 +20.7 0.1
З 3.8
{5.1}
+20.1 +20.1 100 +24 +24 комфорт 1005.7 937.7 +20.7 +20.1
СЗ 5.0
{7.1}
+20.2 +20.2 100 +24 +24 комфорт 1005.4 937.4 +20.2 +20.1
С 5.0
{6.8}
+20.1 +20.1 100 +24 +24 комфорт 1004.9 937.0 +20.2 +20.1 0.1
С 3.9
{5.7}
+20.1 +20.1 100 +24 +24 комфорт 1004.8 936.9 +20.1 +20.1
СЗ 1.7
{3.0}
+19.8 +19.8 100 +24 +24 комфорт 1004.8 936.9 +19.8 +19.8
С 1.5
{3.0}
+20.0 +20.0 100 +24 +24 комфорт 1004.8 936.9 +20.0 +19.8
С 1.6
{2.6}
+20.3 +20.3 100 +25 +25 комфорт 1004.8 936.9 +20.3 +20.0
СВ 1.9
{3.8}
+20.4 +20.4 100 +25 +25 комфорт 1004.8 936.9 +20.4 +20.3
ЮЗ 0.9
{2.1}
+20.2 +20.2 100 +25 +25 комфорт 1004.9 937.0 +20.4 +20.2
З 1.5
{2.1}
+20.2 +20.2 100 +25 +25 комфорт 1004.7 936.8 +20.2 +20.1
С 1.9
{2.8}
+20.1 +20.1 100 +24 +24 комфорт 1004.5 936.6 +20.2 +20.1
С 1.8
{2.8}
+20.4 +20.4 100 +25 +25 комфорт 1004.5 936.6 +20.4 +20.1
С 1.6
{2.4}
+20.4 +20.4 100 +25 +25 комфорт 1004.4 936.5 +20.5 +20.4
СЗ 0.6
{1.3}
+20.2 +20.2 100 +26 +26 душно 1004.4 936.5 +20.4 +20.2
З 0.8
{2.0}
+19.9 +19.9 100 +25 +25 комфорт 1004.4 936.5 +20.2 +19.9
В 0.5
{1.0}
+19.9 +19.9 100 +25 +25 комфорт 1004.5 936.6 +19.9 +19.9
ЮВ 0.8
{1.4}
+19.9 +19.9 100 +25 +25 комфорт 1004.5 936.6 +19.9 +19.9
ЮВ 1.0
{1.6}
+20.0 +20.0 100 +25 +25 комфорт 1004.4 936.5 +20.0 +19.9
ЮВ 1.0
{1.8}
+20.0 +20.0 100 +25 +25 комфорт 1004.3 936.4 +20.0 +20.0
В 0.3
{1.1}
+20.1 +20.1 100 +26 +26 душно 1004.3 936.4 +20.1 +20.0
С 0.6
{1.1}
+20.0 +20.0 100 +25 +25 комфорт 1004.2 936.3 +20.1 +20.0
С 1.4
{2.0}
+19.9 +19.9 100 +24 +24 комфорт 1004.1 936.2 +20.0 +19.9
С 1.8
{3.0}
+19.8 +19.8 100 +24 +24 комфорт 1003.9 936.0 +19.9 +19.8
СВ 1.8
{2.3}
+19.9 +19.9 100 +24 +24 комфорт 1003.9 936.0 +19.9 +19.8 0.1
С 1.7
{2.4}
+19.8 +19.8 100 +24 +24 комфорт 1003.8 935.9 +19.9 +19.8
С 2.5
{3.2}
+19.6 +19.6 100 +23 +23 комфорт 1003.7 935.8 +19.8 +19.6
С 1.7
{3.0}
+19.6 +19.6 100 +23 +23 комфорт 1003.6 935.7 +19.7 +19.6
С 2.0
{2.8}
+19.6 +19.6 100 +23 +23 комфорт 1003.6 935.7 +19.6 +19.5
С 1.6
{2.6}
+19.8 +19.8 100 +24 +24 комфорт 1003.5 935.6 +19.8 +19.6
СВ 0.9
{2.7}
+19.8 +19.8 100 +24 +24 комфорт 1003.4 935.5 +19.8 +19.8
СВ 1.8
{3.5}
+29.4 +29.4 100 +53 +53 очень
душно
1009.4 941.2 +29.5 +29.1
СВ 2.2
{3.7}
+29.6 +29.6 100 +53 +53 очень
душно
1009.3 941.1 +29.6 +29.4
СВ 1.5
{3.8}
+30.0 +30.0 100 +55 +55 очень
душно
1009.3 941.1 +30.0 +29.5
СВ 1.3
{2.9}
+30.4 +30.4 100 +58 +58 очень
душно
1009.2 941.0 +30.4 +30.0
СВ 1.5
{3.5}
+30.6 +30.6 100 +59 +59 очень
душно
1009.2 941.0 +30.8 +30.4
В 1.3
{2.7}
+30.7 +30.7 100 +59 +59 очень
душно
1009.2 941.0 +30.8 +30.4
В 1.5
{2.8}
+30.8 +30.8 100 +60 +60 очень
душно
1009.2 941.0 +31.0 +30.7
В 1.2
{3.1}
+31.4 +31.4 100 +63 +63 очень
душно
1009.1 940.9 +31.6 +30.8
Ю 1.0
{2.2}
+31.5 +31.5 100 +63 +63 очень
душно
1009.1 940.9 +31.6 +31.3
Ю 1.4
{2.9}
+31.8 +31.8 100 +65 +65 очень
душно
1008.9 940.7 +31.8 +31.4
Ю 1.5
{2.8}
+31.6 +31.6 100 +64 +64 очень
душно
1008.8 940.6 +31.8 +31.4
ЮВ 1.1
{3.3}
+31.8 +31.8 100 +65 +65 очень
душно
1008.6 940.5 +32.0 +31.6
Ю 1.7
{3.2}
+32.0 +32.0 100 +66 +66 очень
душно
1008.6 940.5 +32.0 +31.7
Ю 1.8
{3.7}
+32.0 +32.0 100 +66 +66 очень
душно
1008.5 940.4 +32.1 +31.9
Ю 1.7
{3.2}
+31.9 +31.9 100 +66 +66 очень
душно
1008.4 940.3 +32.1 +31.9
ЮВ 1.8
{3.1}
+32.1 +32.1 100 +67 +67 очень
душно
1008.3 940.2 +32.1 +31.9
Ю 1.9
{3.6}
+32.2 +32.2 100 +68 +68 очень
душно
1008.2 940.1 +32.3 +32.0
ЮВ 1.3
{2.9}
+32.6 +32.6 100 +70 +70 очень
душно
1008.2 940.1 +32.6 +32.2
Ю 1.6
{3.4}
+32.3 +32.3 100 +68 +68 очень
душно
1008.1 940.0 +32.6 +32.3
Ю 1.0
{2.4}
+32.5 +32.5 100 +69 +69 очень
душно
1008.1 940.0 +32.6 +32.2
З 1.9
{4.4}
+32.5 +32.5 100 +69 +69 очень
душно
1008.0 939.9 +32.9 +32.5
Ю 1.7
{3.2}
+32.6 +32.6 100 +70 +70 очень
душно
1008.0 939.9 +32.7 +32.4
Ю 1.2
{3.7}
+33.0 +33.0 100 +72 +72 очень
душно
1008.0 939.9 +33.0 +32.6
Ю 1.4
{2.7}
+33.3 +33.3 100 +74 +74 очень
душно
1007.9 939.8 +33.3 +32.9
ЮВ 1.4
{3.3}
+32.4 +32.4 100 +69 +69 очень
душно
1007.8 939.7 +33.3 +32.4
Ю 1.9
{3.0}
+32.1 +32.1 100 +67 +67 очень
душно
1007.7 939.6 +32.4 +32.1
Ю 1.5
{3.1}
+32.4 +32.4 100 +69 +69 очень
душно
1007.7 939.6 +32.4 +31.9
С 0.8
{1.9}
+33.3 +33.3 100 +74 +74 очень
душно
1007.5 939.4 +33.3 +32.4
Ю 1.1
{2.9}
+33.0 +33.0 100 +72 +72 очень
душно
1007.5 939.4 +33.5 +33.0
ЮЗ 1.6
{3.4}
+32.8 +32.8 100 +71 +71 очень
душно
1007.4 939.3 +33.0 +32.7
Местоположение метеостанции Сариасия (Сухрандарьинская область, Узбекистан): широта 38.44 долгота 67.99 высота над уровнем моря 0 м.
В архиве по умолчанию представлена погода в Сариасии за последние 1-2 суток. Обновление информации о фактической погоде в базе происходит ежечасно! Архивные данные за месяц целиком и за предыдущие месяцы Вы можете получить, выбрав интересующий диапазон дат из раскрывающегося списка и нажав кнопку "Ввод!".
*Определитесь, кто Вы:
Внимание! Время в таблицах - местное (без учета летнего времени). Для получения всемирного времени необходимо вычесть поправку, которая равна 5 ч.
Смотрите также архив погоды на ближайших метеорологических станциях:
Партнеры нашего сайта:      
Пояснения к столбцам:
  • Ветер - указаны скорость ветра в м/с - средняя за 10 мин, порывы в срок и между сроками (в фигурных скобках) и направление, откуда дует ветер: С - северный,
  • СВ - северо-восточный, В - восточный, ЮВ - юго-восточный, Ю - южный, ЮЗ - юго-западный, З - западный, СЗ - северо-западный.
  • Видимость - горизонтальная дальность видимости в метрах или километрах. При видимости от 1 до 10 км при отсутствии осадков обычно наблюдается дымка, при ухудшении видимости до 1 км и менее - туман. В сухую погоду видимость может ухудшаться дымом, пылью или мглою.
  • Явления - указаны атмосферные явления, наблюдавшиеся в срок или в последний час перед сроком.
  • Солнечная радиация - мощность потока солнечного излучения на поверхность земли и предметов в Вт/м2.
  • T - Температура воздуха - температура, измеренная на высоте 2 м над землей.
  • Td - Температура точки росы - температура, при понижении до которой содержащийся в воздухе водяной пар достигнет насыщения.
  • f - Относительная влажность воздуха - влажноcть воздуха, измеренная на высоте 2 м над землей.
  • Te - Эффективная температура - температура, которую ощущает одетый по сезону человек в тени. Характеристика душности погоды. При расчете учитывается влияние влажности воздуха и скорости ветра на теплоощущения человека.
  • Tes - Эффективная температура на солнце - температура, которую ощущает человек, с поправкой на солнечный нагрев. Характеристика знойности погоды. Зависит от высоты солнца над горизонтом, облачности и скорости ветра. Ночью, в пасмурную погоду, а также при ветре 12 м/с и более поправка равна нулю.
  • P - Атмосферное давление - приведенное к уровню моря атмосферное давление.
  • Po - Атмосферное давление - измеренное на уровне метеостанции атмосферное давление.
  • Tmin - Минимальная температура - минимум температуры воздуха на высоте 2 м над землей.
  • Tmax - Максимальная температура - максимум температуры воздуха на высоте 2 м над землей.
  • R - Количество осадков - Количество выпавших осадков за период времени, мм. При наведении курсора мыши на число - период времени, за который выпало указанное количество осадков.